Time,TemperatureF,DewpointF,PressureIn,WindDirection,WindDirectionDegrees,WindSpeedMPH,WindSpeedGustMPH,Humidity,HourlyPrecipIn,Conditions,Clouds,dailyrainin,SoftwareType,DateUTC
2013-01-06 00:00:00,34.1,25.0,30.19,SE,139,0.0,1.0,69,0.00,,---,0.01,VWS V14.01,2013-01-06 05:00:00,
2013-01-06 00:01:00,34.1,25.0,30.19,SE,140,0.0,0.0,69,0.00,,---,0.01,VWS V14.01,2013-01-06 05:01:00,
2013-01-06 00:07:00,34.1,25.7,30.19,WSW,256,0.0,0.0,71,0.00,,---,0.00,VWS V14.01,2013-01-06 05:07:00,
2013-01-06 00:12:00,34.0,25.9,30.19,East,86,0.0,0.0,72,0.00,,---,0.00,VWS V14.01,2013-01-06 05:12:00,
2013-01-06 00:17:00,34.1,25.0,30.19,ESE,123,0.0,1.0,69,0.00,,---,0.00,VWS V14.01,2013-01-06 05:17:00,
2013-01-06 00:23:00,34.1,25.7,30.19,SE,127,0.0,0.0,71,0.00,,---,0.00,VWS V14.01,2013-01-06 05:23:00,
2013-01-06 00:28:00,34.0,25.6,30.18,SSE,163,0.0,0.0,71,0.00,,---,0.00,VWS V14.01,2013-01-06 05:28:00,
2013-01-06 00:33:00,34.0,25.6,30.18,SSE,149,0.0,0.0,71,0.00,,---,0.00,VWS V14.01,2013-01-06 05:33:00,
2013-01-06 00:38:00,33.9,25.5,30.19,SSE,150,0.0,0.0,71,0.00,,---,0.00,VWS V14.01,2013-01-06 05:38:00,
2013-01-06 00:43:00,34.0,25.3,30.19,SSE,149,0.0,0.0,70,0.00,,---,0.00,VWS V14.01,2013-01-06 05:43:00,
2013-01-06 00:48:00,34.0,25.3,30.18,SSE,150,0.0,0.0,70,0.00,,---,0.00,VWS V14.01,2013-01-06 05:48:00,
2013-01-06 00:53:00,34.0,26.3,30.18,SE,125,0.0,1.0,73,0.00,,---,0.00,VWS V14.01,2013-01-06 05:53:00,
2013-01-06 00:58:00,34.0,25.3,30.19,SE,125,1.0,1.0,70,0.00,,---,0.00,VWS V14.01,2013-01-06 05:58:00,
2013-01-06 01:03:00,34.1,24.3,30.19,SE,136,0.0,1.0,67,0.00,,---,0.00,VWS V14.01,2013-01-06 06:03:00,
2013-01-06 01:08:00,34.3,25.2,30.19,SE,139,1.0,2.0,69,0.00,,---,0.00,VWS V14.01,2013-01-06 06:08:00,
2013-01-06 01:13:00,34.3,25.2,30.18,SE,136,0.0,1.0,69,0.00,,---,0.00,VWS V14.01,2013-01-06 06:13:00,
2013-01-06 01:19:00,34.3,25.5,30.18,SE,125,0.0,0.0,70,0.00,,---,0.00,VWS V14.01,2013-01-06 06:19:00,
2013-01-06 01:24:00,34.3,24.9,30.17,SSE,150,0.0,0.0,68,0.00,,---,0.00,VWS V14.01,2013-01-06 06:24:00,
2013-01-06 01:29:00,34.4,25.3,30.17,SSE,150,0.0,0.0,69,0.00,,---,0.00,VWS V14.01,2013-01-06 06:29:00,
2013-01-06 01:34:00,34.3,25.2,30.17,SSE,156,0.0,0.0,69,0.00,,---,0.00,VWS V14.01,2013-01-06 06:34:00,
2013-01-06 01:39:00,34.3,25.5,30.17,ESE,122,0.0,0.0,70,0.00,,---,0.00,VWS V14.01,2013-01-06 06:39:00,
2013-01-06 01:44:00,34.4,25.6,30.17,SE,139,0.0,0.0,70,0.00,,---,0.00,VWS V14.01,2013-01-06 06:44:00,
2013-01-06 01:49:00,34.3,25.5,30.16,SE,139,0.0,0.0,70,0.00,,---,0.00,VWS V14.01,2013-01-06 06:49:00,
2013-01-06 01:54:00,34.2,25.1,30.16,SE,140,0.0,1.0,69,0.00,,---,0.00,VWS V14.01,2013-01-06 06:54:00,
2013-01-06 01:59:00,34.2,24.8,30.16,SE,131,0.0,1.0,68,0.00,,---,0.00,VWS V14.01,2013-01-06 06:59:00,
2013-01-06 02:04:00,34.2,25.1,30.16,SE,127,1.0,1.0,69,0.00,,---,0.00,VWS V14.01,2013-01-06 07:04:00,
2013-01-06 02:09:00,34.1,25.4,30.16,SE,124,0.0,1.0,70,0.00,,---,0.00,VWS V14.01,2013-01-06 07:09:00,
2013-01-06 02:14:00,33.9,25.8,30.17,SE,129,0.0,0.0,72,0.00,,---,0.00,VWS V14.01,2013-01-06 07:14:00,
2013-01-06 02:19:00,33.9,24.8,30.17,SE,129,0.0,0.0,69,0.00,,---,0.00,VWS V14.01,2013-01-06 07:19:00,
2013-01-06 02:25:00,34.0,24.2,30.16,SE,129,0.0,0.0,67,0.00,,---,0.00,VWS V14.01,2013-01-06 07:25:00,
2013-01-06 02:30:00,34.1,25.0,30.16,SSE,167,0.0,0.0,69,0.00,,---,0.00,VWS V14.01,2013-01-06 07:30:00,
2013-01-06 02:35:00,34.4,25.0,30.17,WNW,285,0.0,1.0,68,0.00,,---,0.00,VWS V14.01,2013-01-06 07:35:00,
2013-01-06 02:40:00,34.8,25.3,30.17,West,279,0.0,0.0,68,0.00,,---,0.00,VWS V14.01,2013-01-06 07:40:00,
2013-01-06 02:45:00,34.8,25.3,30.15,West,280,0.0,0.0,68,0.00,,---,0.00,VWS V14.01,2013-01-06 07:45:00,
2013-01-06 02:50:00,34.7,25.2,30.16,West,279,0.0,0.0,68,0.00,,---,0.00,VWS V14.01,2013-01-06 07:50:00,
2013-01-06 02:55:00,34.5,25.4,30.16,West,280,0.0,0.0,69,0.00,,---,0.00,VWS V14.01,2013-01-06 07:55:00,
2013-01-06 03:00:00,34.4,25.3,30.16,West,280,0.0,0.0,69,0.00,,---,0.00,VWS V14.01,2013-01-06 08:00:00,
2013-01-06 03:05:00,34.2,25.1,30.15,West,279,0.0,0.0,69,0.00,,---,0.00,VWS V14.01,2013-01-06 08:05:00,
2013-01-06 03:10:00,34.1,25.4,30.15,West,280,0.0,0.0,70,0.00,,---,0.00,VWS V14.01,2013-01-06 08:10:00,
2013-01-06 03:15:00,34.1,26.0,30.15,SW,229,0.0,0.0,72,0.00,,---,0.00,VWS V14.01,2013-01-06 08:15:00,
2013-01-06 03:20:00,33.9,25.8,30.15,SW,231,0.0,0.0,72,0.00,,---,0.00,VWS V14.01,2013-01-06 08:20:00,
2013-01-06 03:25:00,33.8,25.7,30.15,SW,231,0.0,0.0,72,0.00,,---,0.00,VWS V14.01,2013-01-06 08:25:00,
2013-01-06 03:30:00,33.7,25.3,30.15,SW,231,0.0,0.0,71,0.00,,---,0.00,VWS V14.01,2013-01-06 08:30:00,
2013-01-06 03:36:00,33.9,25.2,30.15,SW,231,0.0,0.0,70,0.00,,---,0.00,VWS V14.01,2013-01-06 08:36:00,
2013-01-06 03:41:00,34.3,24.9,30.15,SW,229,0.0,0.0,68,0.00,,---,0.00,VWS V14.01,2013-01-06 08:41:00,
2013-01-06 03:46:00,34.6,24.8,30.15,SW,231,0.0,0.0,67,0.00,,---,0.00,VWS V14.01,2013-01-06 08:46:00,
2013-01-06 03:51:00,34.8,24.6,30.14,SW,231,0.0,0.0,66,0.00,,---,0.00,VWS V14.01,2013-01-06 08:51:00,
2013-01-06 03:56:00,35.0,25.2,30.14,West,278,0.0,0.0,67,0.00,,---,0.00,VWS V14.01,2013-01-06 08:56:00,
2013-01-06 04:01:00,35.2,24.6,30.14,West,279,0.0,0.0,65,0.00,,---,0.00,VWS V14.01,2013-01-06 09:01:00,
2013-01-06 04:06:00,35.4,25.2,30.14,WSW,253,0.0,0.0,66,0.00,,---,0.00,VWS V14.01,2013-01-06 09:06:00,
2013-01-06 04:11:00,35.5,24.5,30.14,WSW,253,0.0,0.0,64,0.00,,---,0.00,VWS V14.01,2013-01-06 09:11:00,
2013-01-06 04:16:00,35.5,24.5,30.14,WSW,253,0.0,0.0,64,0.00,,---,0.00,VWS V14.01,2013-01-06 09:16:00,
2013-01-06 04:21:00,35.4,24.5,30.14,WSW,253,0.0,0.0,64,0.00,,---,0.00,VWS V14.01,2013-01-06 09:21:00,
2013-01-06 04:26:00,35.3,24.4,30.14,WSW,252,0.0,0.0,64,0.00,,---,0.00,VWS V14.01,2013-01-06 09:26:00,
2013-01-06 04:32:00,35.2,24.3,30.13,WSW,253,0.0,0.0,64,0.00,,---,0.00,VWS V14.01,2013-01-06 09:32:00,
2013-01-06 04:37:00,35.0,24.1,30.13,WSW,253,0.0,0.0,64,0.00,,---,0.00,VWS V14.01,2013-01-06 09:37:00,
2013-01-06 04:42:00,34.9,24.0,30.13,West,270,0.0,1.0,64,0.00,,---,0.00,VWS V14.01,2013-01-06 09:42:00,
2013-01-06 04:47:00,34.7,24.1,30.13,West,271,0.0,0.0,65,0.00,,---,0.00,VWS V14.01,2013-01-06 09:47:00,
2013-01-06 04:52:00,34.5,23.6,30.13,West,269,0.0,0.0,64,0.00,,---,0.00,VWS V14.01,2013-01-06 09:52:00,
2013-01-06 04:57:00,34.3,23.8,30.13,West,270,0.0,0.0,65,0.00,,---,0.00,VWS V14.01,2013-01-06 09:57:00,
2013-01-06 05:02:00,34.0,23.5,30.12,NW,304,0.0,0.0,65,0.00,,---,0.00,VWS V14.01,2013-01-06 10:02:00,
2013-01-06 05:07:00,33.6,23.5,30.12,WNW,302,0.0,0.0,66,0.00,,---,0.00,VWS V14.01,2013-01-06 10:07:00,
2013-01-06 05:12:00,33.1,23.4,30.12,WNW,302,0.0,0.0,67,0.00,,---,0.00,VWS V14.01,2013-01-06 10:12:00,
2013-01-06 05:17:00,32.8,23.4,30.12,WNW,302,0.0,0.0,68,0.00,,---,0.00,VWS V14.01,2013-01-06 10:17:00,
2013-01-06 05:22:00,32.7,23.7,30.12,WNW,302,0.0,0.0,69,0.00,,---,0.00,VWS V14.01,2013-01-06 10:22:00,
2013-01-06 05:27:00,32.8,23.4,30.12,WNW,302,0.0,0.0,68,0.00,,---,0.00,VWS V14.01,2013-01-06 10:27:00,
2013-01-06 05:33:00,32.8,23.4,30.12,WNW,302,0.0,0.0,68,0.00,,---,0.00,VWS V14.01,2013-01-06 10:33:00,
2013-01-06 05:38:00,32.9,23.5,30.12,WNW,302,0.0,0.0,68,0.00,,---,0.00,VWS V14.01,2013-01-06 10:38:00,
2013-01-06 05:43:00,33.0,23.6,30.12,West,274,0.0,0.0,68,0.00,,---,0.00,VWS V14.01,2013-01-06 10:43:00,
2013-01-06 05:48:00,33.0,23.6,30.12,West,274,0.0,0.0,68,0.00,,---,0.00,VWS V14.01,2013-01-06 10:48:00,
2013-01-06 05:53:00,33.1,23.7,30.12,NW,311,0.0,0.0,68,0.00,,---,0.00,VWS V14.01,2013-01-06 10:53:00,
2013-01-06 05:58:00,33.3,23.9,30.12,WSW,249,0.0,1.0,68,0.00,,---,0.00,VWS V14.01,2013-01-06 10:58:00,
2013-01-06 06:03:00,33.8,24.4,30.12,West,281,0.0,1.0,68,0.00,,---,0.00,VWS V14.01,2013-01-06 11:03:00,
2013-01-06 06:08:00,34.1,24.3,30.12,West,281,0.0,0.0,67,0.00,,---,0.00,VWS V14.01,2013-01-06 11:08:00,
2013-01-06 06:13:00,34.2,24.4,30.12,West,278,0.0,1.0,67,0.00,,---,0.00,VWS V14.01,2013-01-06 11:13:00,
2013-01-06 06:18:00,34.6,24.8,30.12,WNW,283,0.0,0.0,67,0.00,,---,0.00,VWS V14.01,2013-01-06 11:18:00,
2013-01-06 06:23:00,34.7,24.9,30.12,SSW,212,0.0,0.0,67,0.00,,---,0.00,VWS V14.01,2013-01-06 11:23:00,
2013-01-06 06:29:00,34.6,24.8,30.13,NE,46,0.0,0.0,67,0.00,,---,0.00,VWS V14.01,2013-01-06 11:29:00,
2013-01-06 06:34:00,34.4,24.6,30.13,NE,46,0.0,0.0,67,0.00,,---,0.00,VWS V14.01,2013-01-06 11:34:00,
2013-01-06 06:39:00,34.3,24.5,30.13,NE,46,0.0,0.0,67,0.00,,---,0.00,VWS V14.01,2013-01-06 11:39:00,
2013-01-06 06:44:00,34.3,24.9,30.13,WSW,258,0.0,0.0,68,0.00,,---,0.00,VWS V14.01,2013-01-06 11:44:00,
2013-01-06 06:49:00,34.7,25.2,30.13,West,259,0.0,0.0,68,0.00,,---,0.00,VWS V14.01,2013-01-06 11:49:00,
2013-01-06 06:54:00,34.8,25.0,30.13,WSW,253,0.0,1.0,67,0.00,,---,0.00,VWS V14.01,2013-01-06 11:54:00,
2013-01-06 06:59:00,34.8,25.0,30.13,WSW,253,0.0,0.0,67,0.00,,---,0.00,VWS V14.01,2013-01-06 11:59:00,
2013-01-06 07:05:00,34.7,24.9,30.14,WSW,253,0.0,0.0,67,0.00,,---,0.00,VWS V14.01,2013-01-06 12:05:00,
2013-01-06 07:10:00,34.5,24.7,30.13,WSW,253,0.0,0.0,67,0.00,,---,0.00,VWS V14.01,2013-01-06 12:10:00,
2013-01-06 07:15:00,34.5,24.7,30.14,WSW,253,0.0,0.0,67,0.00,,---,0.00,VWS V14.01,2013-01-06 12:15:00,
2013-01-06 07:20:00,34.5,24.7,30.13,WSW,253,0.0,0.0,67,0.00,,---,0.00,VWS V14.01,2013-01-06 12:20:00,
2013-01-06 07:25:00,34.5,25.0,30.14,WSW,253,0.0,0.0,68,0.00,,---,0.00,VWS V14.01,2013-01-06 12:25:00,
2013-01-06 07:30:00,34.6,24.8,30.13,WSW,253,0.0,1.0,67,0.00,,---,0.00,VWS V14.01,2013-01-06 12:30:00,
2013-01-06 07:35:00,34.7,24.9,30.14,WSW,253,0.0,0.0,67,0.00,,---,0.00,VWS V14.01,2013-01-06 12:35:00,
2013-01-06 07:40:00,34.9,25.1,30.13,WSW,253,0.0,0.0,67,0.00,,---,0.00,VWS V14.01,2013-01-06 12:40:00,
2013-01-06 07:45:00,35.0,24.8,30.14,West,274,0.0,0.0,66,0.00,,---,0.00,VWS V14.01,2013-01-06 12:45:00,
2013-01-06 07:50:00,35.2,25.0,30.13,West,274,0.0,0.0,66,0.00,,---,0.00,VWS V14.01,2013-01-06 12:50:00,
2013-01-06 07:55:00,35.2,25.0,30.14,West,274,0.0,0.0,66,0.00,,---,0.00,VWS V14.01,2013-01-06 12:55:00,
2013-01-06 08:00:00,35.5,25.3,30.13,West,274,0.0,0.0,66,0.00,,---,0.00,VWS V14.01,2013-01-06 13:00:00,
2013-01-06 08:05:00,35.6,25.4,30.13,WNW,290,0.0,0.0,66,0.00,,---,0.00,VWS V14.01,2013-01-06 13:05:00,
2013-01-06 08:10:00,36.0,25.8,30.13,West,281,0.0,0.0,66,0.00,,---,0.00,VWS V14.01,2013-01-06 13:10:00,
2013-01-06 08:16:00,36.3,25.7,30.14,NW,310,0.0,0.0,65,0.00,,---,0.00,VWS V14.01,2013-01-06 13:16:00,
2013-01-06 08:21:00,36.7,26.1,30.13,NE,44,0.0,0.0,65,0.00,,---,0.00,VWS V14.01,2013-01-06 13:21:00,
2013-01-06 08:26:00,36.9,26.2,30.14,WNW,300,0.0,0.0,65,0.00,,---,0.00,VWS V14.01,2013-01-06 13:26:00,
2013-01-06 08:31:00,37.1,26.1,30.13,WNW,300,0.0,0.0,64,0.00,,---,0.00,VWS V14.01,2013-01-06 13:31:00,
2013-01-06 08:36:00,37.2,26.2,30.13,SW,236,0.0,0.0,64,0.00,,---,0.00,VWS V14.01,2013-01-06 13:36:00,
2013-01-06 08:41:00,37.4,26.4,30.14,SW,236,0.0,0.0,64,0.00,,---,0.00,VWS V14.01,2013-01-06 13:41:00,
2013-01-06 08:46:00,37.6,26.2,30.14,SW,236,0.0,0.0,63,0.00,,---,0.00,VWS V14.01,2013-01-06 13:46:00,
2013-01-06 08:52:00,37.9,26.1,30.13,NNW,334,0.0,0.0,62,0.00,,---,0.00,VWS V14.01,2013-01-06 13:52:00,
2013-01-06 08:57:00,38.0,26.1,30.13,North,352,0.0,0.0,62,0.00,,---,0.00,VWS V14.01,2013-01-06 13:57:00,
2013-01-06 09:02:00,38.1,25.9,30.13,North,354,0.0,0.0,61,0.00,,---,0.00,VWS V14.01,2013-01-06 14:02:00,
2013-01-06 09:07:00,38.3,26.0,30.13,North,352,0.0,0.0,61,0.00,,---,0.00,VWS V14.01,2013-01-06 14:07:00,
2013-01-06 09:12:00,38.3,26.4,30.13,WSW,240,0.0,1.0,62,0.00,,---,0.00,VWS V14.01,2013-01-06 14:12:00,
2013-01-06 09:17:00,38.2,26.0,30.13,SSE,153,0.0,0.0,61,0.00,,---,0.00,VWS V14.01,2013-01-06 14:17:00,
2013-01-06 09:22:00,38.3,26.4,30.14,SSE,153,0.0,0.0,62,0.00,,---,0.00,VWS V14.01,2013-01-06 14:22:00,
2013-01-06 09:28:00,38.5,25.8,30.13,SE,132,0.0,0.0,60,0.00,,---,0.00,VWS V14.01,2013-01-06 14:28:00,
2013-01-06 09:33:00,38.9,26.2,30.13,SE,132,0.0,0.0,60,0.00,,---,0.00,VWS V14.01,2013-01-06 14:33:00,
2013-01-06 09:38:00,39.3,27.0,30.14,SE,127,0.0,0.0,61,0.00,,---,0.00,VWS V14.01,2013-01-06 14:38:00,
2013-01-06 09:43:00,39.8,27.1,30.14,ESE,102,0.0,0.0,60,0.00,,---,0.00,VWS V14.01,2013-01-06 14:43:00,
2013-01-06 09:49:00,40.6,26.6,30.14,NNW,335,0.0,0.0,57,0.00,,---,0.00,VWS V14.01,2013-01-06 14:49:00,
2013-01-06 09:54:00,41.0,27.0,30.14,ENE,72,0.0,0.0,57,0.00,,---,0.00,VWS V14.01,2013-01-06 14:54:00,
2013-01-06 09:59:00,41.3,25.9,30.14,South,186,0.0,1.0,54,0.00,,---,0.00,VWS V14.01,2013-01-06 14:59:00,
2013-01-06 10:04:00,41.7,27.2,30.14,ESE,111,0.0,0.0,56,0.00,,---,0.00,VWS V14.01,2013-01-06 15:04:00,
2013-01-06 10:09:00,41.8,28.5,30.14,ESE,110,0.0,0.0,59,0.00,,---,0.00,VWS V14.01,2013-01-06 15:09:00,
2013-01-06 10:14:00,42.2,28.1,30.14,ESE,113,0.0,1.0,57,0.00,,---,0.00,VWS V14.01,2013-01-06 15:14:00,
2013-01-06 10:19:00,42.5,26.1,30.13,WNW,293,0.0,3.0,52,0.00,,---,0.00,VWS V14.01,2013-01-06 15:19:00,
2013-01-06 10:24:00,42.6,26.2,30.13,SSE,155,0.0,2.0,52,0.01,,---,0.01,VWS V14.01,2013-01-06 15:24:00,
2013-01-06 10:29:00,42.8,25.9,30.13,NNW,330,0.0,0.0,51,0.01,,---,0.01,VWS V14.01,2013-01-06 15:29:00,
2013-01-06 10:34:00,43.1,26.2,30.13,WNW,284,0.0,0.0,51,0.01,,---,0.01,VWS V14.01,2013-01-06 15:34:00,
2013-01-06 10:40:00,43.3,25.9,30.13,NW,323,1.0,1.0,50,0.01,,---,0.01,VWS V14.01,2013-01-06 15:40:00,
2013-01-06 10:45:00,43.5,26.1,30.13,West,269,1.0,4.0,50,0.01,,---,0.01,VWS V14.01,2013-01-06 15:45:00,
2013-01-06 10:50:00,43.5,26.6,30.13,NNW,337,0.0,1.0,51,0.01,,---,0.01,VWS V14.01,2013-01-06 15:50:00,
2013-01-06 10:55:00,43.7,26.8,30.13,WNW,297,2.0,2.0,51,0.01,,---,0.01,VWS V14.01,2013-01-06 15:55:00,
2013-01-06 11:00:00,43.7,26.8,30.12,West,259,0.0,0.0,51,0.01,,---,0.01,VWS V14.01,2013-01-06 16:00:00,
2013-01-06 11:05:00,43.8,27.3,30.12,West,270,1.0,2.0,52,0.02,,---,0.02,VWS V14.01,2013-01-06 16:05:00,
2013-01-06 11:10:00,44.1,27.1,30.12,West,281,0.0,1.0,51,0.02,,---,0.02,VWS V14.01,2013-01-06 16:10:00,
2013-01-06 11:15:00,44.3,26.9,30.12,ENE,73,0.0,1.0,50,0.02,,---,0.02,VWS V14.01,2013-01-06 16:15:00,
2013-01-06 11:20:00,44.1,27.1,30.11,East,89,0.0,1.0,51,0.02,,---,0.02,VWS V14.01,2013-01-06 16:20:00,
2013-01-06 11:25:00,44.0,27.0,30.11,SSW,211,0.0,1.0,51,0.01,,---,0.02,VWS V14.01,2013-01-06 16:25:00,
2013-01-06 11:30:00,43.7,27.2,30.11,WSW,243,0.0,1.0,52,0.01,,---,0.02,VWS V14.01,2013-01-06 16:30:00,
2013-01-06 11:35:00,43.4,27.0,30.10,NW,323,0.0,1.0,52,0.01,,---,0.02,VWS V14.01,2013-01-06 16:35:00,
2013-01-06 11:40:00,43.2,26.8,30.10,North,356,0.0,3.0,52,0.01,,---,0.02,VWS V14.01,2013-01-06 16:40:00,
2013-01-06 11:45:00,43.1,26.7,30.10,WNW,288,0.0,1.0,52,0.01,,---,0.02,VWS V14.01,2013-01-06 16:45:00,
2013-01-06 11:50:00,43.2,27.2,30.10,NNW,329,0.0,1.0,53,0.01,,---,0.02,VWS V14.01,2013-01-06 16:50:00,
2013-01-06 11:55:00,43.2,28.1,30.09,South,190,0.0,1.0,55,0.01,,---,0.02,VWS V14.01,2013-01-06 16:55:00,
2013-01-06 12:00:00,43.1,27.6,30.09,NW,307,3.0,3.0,54,0.01,,---,0.02,VWS V14.01,2013-01-06 17:00:00,
2013-01-06 12:05:00,43.0,27.0,30.08,SSW,203,0.0,1.0,53,0.00,,---,0.02,VWS V14.01,2013-01-06 17:05:00,
2013-01-06 12:10:00,42.9,27.0,30.08,WNW,302,2.0,2.0,53,0.01,,---,0.03,VWS V14.01,2013-01-06 17:10:00,
2013-01-06 12:15:00,42.8,26.9,30.07,NW,322,0.0,1.0,53,0.01,,---,0.03,VWS V14.01,2013-01-06 17:15:00,
2013-01-06 12:20:00,43.0,28.0,30.07,East,83,0.0,0.0,55,0.01,,---,0.03,VWS V14.01,2013-01-06 17:20:00,
2013-01-06 12:25:00,43.1,27.1,30.07,North,349,1.0,1.0,53,0.01,,---,0.03,VWS V14.01,2013-01-06 17:25:00,
2013-01-06 12:31:00,43.2,28.1,30.07,East,94,1.0,2.0,55,0.01,,---,0.03,VWS V14.01,2013-01-06 17:31:00,
2013-01-06 12:36:00,43.1,27.1,30.06,NW,322,0.0,1.0,53,0.01,,---,0.03,VWS V14.01,2013-01-06 17:36:00,
2013-01-06 12:41:00,43.2,27.7,30.06,NNE,30,1.0,1.0,54,0.01,,---,0.03,VWS V14.01,2013-01-06 17:41:00,
2013-01-06 12:46:00,43.2,27.7,30.06,WNW,293,1.0,2.0,54,0.01,,---,0.03,VWS V14.01,2013-01-06 17:46:00,
2013-01-06 12:51:00,43.2,27.7,30.06,NE,50,1.0,2.0,54,0.01,,---,0.03,VWS V14.01,2013-01-06 17:51:00,
2013-01-06 12:56:00,43.2,27.7,30.06,SSW,197,0.0,1.0,54,0.01,,---,0.03,VWS V14.01,2013-01-06 17:56:00,
2013-01-06 13:01:00,43.2,28.1,30.05,NNE,17,0.0,1.0,55,0.01,,---,0.03,VWS V14.01,2013-01-06 18:01:00,
2013-01-06 13:07:00,43.2,28.1,30.05,SE,128,0.0,0.0,55,0.00,,---,0.03,VWS V14.01,2013-01-06 18:07:00,
2013-01-06 13:12:00,43.1,28.0,30.05,WSW,250,2.0,2.0,55,0.00,,---,0.03,VWS V14.01,2013-01-06 18:12:00,
2013-01-06 13:17:00,43.0,28.0,30.05,SW,215,0.0,0.0,55,0.00,,---,0.03,VWS V14.01,2013-01-06 18:17:00,
2013-01-06 13:22:00,43.0,27.5,30.04,WSW,248,1.0,4.0,54,0.00,,---,0.03,VWS V14.01,2013-01-06 18:22:00,
2013-01-06 13:27:00,43.0,28.4,30.04,North,351,0.0,0.0,56,0.00,,---,0.03,VWS V14.01,2013-01-06 18:27:00,
2013-01-06 13:32:00,43.1,27.6,30.04,ENE,63,2.0,2.0,54,0.00,,---,0.03,VWS V14.01,2013-01-06 18:32:00,
2013-01-06 13:37:00,43.1,27.6,30.04,NW,316,0.0,2.0,54,0.00,,---,0.03,VWS V14.01,2013-01-06 18:37:00,
2013-01-06 13:42:00,43.0,27.5,30.04,NW,308,0.0,0.0,54,0.00,,---,0.03,VWS V14.01,2013-01-06 18:42:00,
2013-01-06 13:48:00,43.0,27.5,30.04,SSW,201,0.0,0.0,54,0.00,,---,0.03,VWS V14.01,2013-01-06 18:48:00,
2013-01-06 13:53:00,43.1,28.0,30.04,NE,56,1.0,1.0,55,0.00,,---,0.03,VWS V14.01,2013-01-06 18:53:00,
2013-01-06 13:58:00,43.1,27.6,30.04,West,274,1.0,2.0,54,0.00,,---,0.03,VWS V14.01,2013-01-06 18:58:00,
2013-01-06 14:03:00,43.2,28.6,30.04,WNW,287,0.0,0.0,56,0.00,,---,0.03,VWS V14.01,2013-01-06 19:03:00,
2013-01-06 14:08:00,43.4,27.9,30.04,North,8,0.0,0.0,54,0.00,,---,0.03,VWS V14.01,2013-01-06 19:08:00,
2013-01-06 14:13:00,43.5,28.0,30.03,East,80,0.0,0.0,54,0.00,,---,0.03,VWS V14.01,2013-01-06 19:13:00,
2013-01-06 14:18:00,43.4,27.9,30.04,WSW,257,1.0,1.0,54,0.00,,---,0.03,VWS V14.01,2013-01-06 19:18:00,
2013-01-06 14:23:00,43.3,27.8,30.03,WSW,250,0.0,1.0,54,0.00,,---,0.03,VWS V14.01,2013-01-06 19:23:00,
2013-01-06 14:28:00,43.2,27.7,30.04,SW,232,1.0,2.0,54,0.00,,---,0.03,VWS V14.01,2013-01-06 19:28:00,
2013-01-06 14:34:00,43.3,28.7,30.03,NW,323,1.0,1.0,56,0.00,,---,0.03,VWS V14.01,2013-01-06 19:34:00,
2013-01-06 14:39:00,43.3,29.1,30.03,NW,322,0.0,0.0,57,0.00,,---,0.03,VWS V14.01,2013-01-06 19:39:00,
2013-01-06 14:44:00,43.3,28.7,30.03,WNW,294,0.0,0.0,56,0.00,,---,0.03,VWS V14.01,2013-01-06 19:44:00,
2013-01-06 14:50:00,43.3,28.2,30.03,ESE,121,0.0,0.0,55,0.00,,---,0.03,VWS V14.01,2013-01-06 19:50:00,
2013-01-06 14:55:00,43.4,28.3,30.04,West,266,0.0,0.0,55,0.00,,---,0.03,VWS V14.01,2013-01-06 19:55:00,
2013-01-06 15:00:00,43.2,28.1,30.04,SW,229,0.0,0.0,55,0.00,,---,0.03,VWS V14.01,2013-01-06 20:00:00,
2013-01-06 15:06:00,43.1,28.5,30.04,WSW,242,0.0,0.0,56,0.00,,---,0.03,VWS V14.01,2013-01-06 20:06:00,
2013-01-06 15:11:00,43.0,28.0,30.04,NE,47,1.0,2.0,55,0.00,,---,0.03,VWS V14.01,2013-01-06 20:11:00,
2013-01-06 15:14:00,42.9,27.9,30.04,East,98,0.0,0.0,55,0.00,,---,0.03,VWS V14.01,2013-01-06 20:14:00,
2013-01-06 15:19:00,42.7,28.1,30.04,East,95,0.0,0.0,56,0.00,,---,0.03,VWS V14.01,2013-01-06 20:19:00,
2013-01-06 15:24:00,42.7,28.1,30.04,NNW,333,2.0,6.0,56,0.00,,---,0.03,VWS V14.01,2013-01-06 20:24:00,
2013-01-06 15:29:00,42.5,28.4,30.04,SW,222,0.0,0.0,57,0.00,,---,0.03,VWS V14.01,2013-01-06 20:29:00,
2013-01-06 15:34:00,42.4,28.3,30.04,NE,43,0.0,0.0,57,0.00,,---,0.03,VWS V14.01,2013-01-06 20:34:00,
2013-01-06 15:39:00,42.2,28.5,30.04,WNW,290,0.0,0.0,58,0.00,,---,0.03,VWS V14.01,2013-01-06 20:39:00,
2013-01-06 15:45:00,42.2,28.5,30.03,West,281,0.0,0.0,58,0.00,,---,0.03,VWS V14.01,2013-01-06 20:45:00,
2013-01-06 15:50:00,42.0,28.3,30.04,North,360,0.0,0.0,58,0.00,,---,0.03,VWS V14.01,2013-01-06 20:50:00,
2013-01-06 15:55:00,41.9,29.0,30.04,SW,236,0.0,0.0,60,0.00,,---,0.03,VWS V14.01,2013-01-06 20:55:00,
2013-01-06 16:00:00,41.6,28.8,30.04,WSW,249,0.0,0.0,60,0.00,,---,0.03,VWS V14.01,2013-01-06 21:00:00,
2013-01-06 16:05:00,41.5,28.7,30.04,ESE,105,0.0,1.0,60,0.00,,---,0.03,VWS V14.01,2013-01-06 21:05:00,
2013-01-06 16:10:00,41.3,28.5,30.04,SSW,197,0.0,0.0,60,0.00,,---,0.03,VWS V14.01,2013-01-06 21:10:00,
2013-01-06 16:15:00,41.2,28.4,30.03,SSW,198,0.0,0.0,60,0.00,,---,0.03,VWS V14.01,2013-01-06 21:15:00,
2013-01-06 16:20:00,41.1,28.7,30.04,SSW,198,0.0,0.0,61,0.00,,---,0.03,VWS V14.01,2013-01-06 21:20:00,
2013-01-06 16:25:00,41.0,28.6,30.04,SSW,198,0.0,0.0,61,0.00,,---,0.03,VWS V14.01,2013-01-06 21:25:00,
2013-01-06 16:30:00,40.8,28.4,30.04,North,1,0.0,0.0,61,0.00,,---,0.03,VWS V14.01,2013-01-06 21:30:00,
2013-01-06 16:35:00,40.7,28.3,30.04,SE,136,0.0,1.0,61,0.00,,---,0.03,VWS V14.01,2013-01-06 21:35:00,
2013-01-06 16:40:00,40.7,28.3,30.04,ESE,107,0.0,0.0,61,0.00,,---,0.03,VWS V14.01,2013-01-06 21:40:00,
2013-01-06 16:45:00,40.7,28.3,30.04,ESE,105,0.0,0.0,61,0.00,,---,0.03,VWS V14.01,2013-01-06 21:45:00,
2013-01-06 16:51:00,40.6,28.2,30.04,NE,43,0.0,0.0,61,0.00,,---,0.03,VWS V14.01,2013-01-06 21:51:00,
2013-01-06 16:56:00,40.6,28.6,30.04,East,84,0.0,0.0,62,0.00,,---,0.03,VWS V14.01,2013-01-06 21:56:00,
2013-01-06 17:01:00,40.5,28.1,30.04,NW,304,0.0,1.0,61,0.00,,---,0.03,VWS V14.01,2013-01-06 22:01:00,
2013-01-06 17:06:00,40.4,28.4,30.05,NNW,330,0.0,0.0,62,0.00,,---,0.03,VWS V14.01,2013-01-06 22:06:00,
2013-01-06 17:11:00,40.2,28.2,30.05,NNW,335,0.0,0.0,62,0.00,,---,0.03,VWS V14.01,2013-01-06 22:11:00,
2013-01-06 17:16:00,40.1,28.1,30.05,WSW,252,0.0,0.0,62,0.00,,---,0.03,VWS V14.01,2013-01-06 22:16:00,
2013-01-06 17:21:00,40.0,28.0,30.05,SSW,211,0.0,1.0,62,0.00,,---,0.03,VWS V14.01,2013-01-06 22:21:00,
2013-01-06 17:26:00,40.0,28.4,30.05,SSW,211,0.0,0.0,63,0.00,,---,0.03,VWS V14.01,2013-01-06 22:26:00,
2013-01-06 17:31:00,40.1,28.5,30.06,North,7,0.0,0.0,63,0.00,,---,0.03,VWS V14.01,2013-01-06 22:31:00,
2013-01-06 17:36:00,40.0,28.4,30.06,North,7,0.0,0.0,63,0.00,,---,0.03,VWS V14.01,2013-01-06 22:36:00,
2013-01-06 17:41:00,39.9,28.3,30.06,WNW,289,0.0,0.0,63,0.00,,---,0.03,VWS V14.01,2013-01-06 22:41:00,
2013-01-06 17:46:00,39.7,28.1,30.06,SW,229,0.0,0.0,63,0.00,,---,0.03,VWS V14.01,2013-01-06 22:46:00,
2013-01-06 17:51:00,39.7,28.1,30.06,SW,230,0.0,0.0,63,0.00,,---,0.03,VWS V14.01,2013-01-06 22:51:00,
2013-01-06 17:56:00,39.5,28.4,30.06,ENE,69,0.0,1.0,64,0.00,,---,0.03,VWS V14.01,2013-01-06 22:56:00,
2013-01-06 18:01:00,39.5,28.4,30.06,ENE,69,0.0,0.0,64,0.00,,---,0.03,VWS V14.01,2013-01-06 23:01:00,
2013-01-06 18:06:00,39.6,28.4,30.07,South,184,0.0,0.0,64,0.00,,---,0.03,VWS V14.01,2013-01-06 23:06:00,
2013-01-06 18:11:00,39.5,28.4,30.07,South,183,0.0,0.0,64,0.00,,---,0.03,VWS V14.01,2013-01-06 23:11:00,
2013-01-06 18:16:00,39.4,28.2,30.07,South,184,0.0,0.0,64,0.00,,---,0.03,VWS V14.01,2013-01-06 23:16:00,
2013-01-06 18:21:00,39.4,28.2,30.07,NW,318,0.0,1.0,64,0.00,,---,0.03,VWS V14.01,2013-01-06 23:21:00,
2013-01-06 18:26:00,39.6,28.8,30.07,WSW,246,0.0,0.0,65,0.00,,---,0.03,VWS V14.01,2013-01-06 23:26:00,
2013-01-06 18:31:00,39.6,28.4,30.07,WSW,256,1.0,2.0,64,0.00,,---,0.03,VWS V14.01,2013-01-06 23:31:00,
2013-01-06 18:37:00,39.6,28.8,30.07,SW,232,0.0,0.0,65,0.00,,---,0.03,VWS V14.01,2013-01-06 23:37:00,
2013-01-06 18:42:00,39.5,28.4,30.08,North,7,0.0,0.0,64,0.00,,---,0.03,VWS V14.01,2013-01-06 23:42:00,
2013-01-06 18:47:00,39.6,28.8,30.08,NE,53,0.0,0.0,65,0.00,,---,0.03,VWS V14.01,2013-01-06 23:47:00,
2013-01-06 18:52:00,39.5,29.1,30.08,ENE,72,0.0,0.0,66,0.00,,---,0.03,VWS V14.01,2013-01-06 23:52:00,
2013-01-06 18:57:00,39.5,28.7,30.08,North,3,2.0,2.0,65,0.00,,---,0.03,VWS V14.01,2013-01-06 23:57:00,
2013-01-06 19:02:00,39.6,28.8,30.08,NW,319,0.0,1.0,65,0.00,,---,0.03,VWS V14.01,2013-01-07 00:02:00,
2013-01-06 19:07:00,39.6,28.8,30.08,West,269,1.0,2.0,65,0.00,,---,0.03,VWS V14.01,2013-01-07 00:07:00,
2013-01-06 19:12:00,39.7,28.9,30.08,NW,323,0.0,0.0,65,0.00,,---,0.03,VWS V14.01,2013-01-07 00:12:00,
2013-01-06 19:17:00,39.7,28.9,30.08,WNW,300,0.0,1.0,65,0.00,,---,0.03,VWS V14.01,2013-01-07 00:17:00,
2013-01-06 19:22:00,39.7,28.9,30.08,North,11,0.0,0.0,65,0.00,,---,0.03,VWS V14.01,2013-01-07 00:22:00,
2013-01-06 19:27:00,39.6,29.2,30.09,NE,36,2.0,2.0,66,0.00,,---,0.03,VWS V14.01,2013-01-07 00:27:00,
2013-01-06 19:32:00,39.4,29.4,30.08,NW,308,1.0,1.0,67,0.00,,---,0.03,VWS V14.01,2013-01-07 00:32:00,
2013-01-06 19:37:00,39.4,29.0,30.09,NW,304,0.0,1.0,66,0.00,,---,0.03,VWS V14.01,2013-01-07 00:37:00,
2013-01-06 19:42:00,39.5,29.1,30.09,WNW,295,0.0,0.0,66,0.00,,---,0.03,VWS V14.01,2013-01-07 00:42:00,
2013-01-06 19:47:00,39.4,29.0,30.09,NNE,30,0.0,0.0,66,0.00,,---,0.03,VWS V14.01,2013-01-07 00:47:00,
2013-01-06 19:52:00,39.3,29.3,30.09,NE,41,0.0,2.0,67,0.00,,---,0.03,VWS V14.01,2013-01-07 00:52:00,
2013-01-06 19:57:00,39.4,29.0,30.09,SW,236,0.0,0.0,66,0.00,,---,0.03,VWS V14.01,2013-01-07 00:57:00,
2013-01-06 20:02:00,39.5,29.1,30.09,NE,36,0.0,1.0,66,0.00,,---,0.03,VWS V14.01,2013-01-07 01:02:00,
2013-01-06 20:07:00,39.4,28.6,30.09,NW,314,0.0,2.0,65,0.00,,---,0.03,VWS V14.01,2013-01-07 01:07:00,
2013-01-06 20:12:00,39.6,29.2,30.09,WNW,296,0.0,3.0,66,0.00,,---,0.03,VWS V14.01,2013-01-07 01:12:00,
2013-01-06 20:17:00,39.4,29.0,30.09,ENE,63,0.0,0.0,66,0.00,,---,0.03,VWS V14.01,2013-01-07 01:17:00,
2013-01-06 20:23:00,39.3,28.9,30.09,West,273,1.0,2.0,66,0.00,,---,0.03,VWS V14.01,2013-01-07 01:23:00,
2013-01-06 20:28:00,39.3,28.9,30.09,West,277,0.0,0.0,66,0.00,,---,0.03,VWS V14.01,2013-01-07 01:28:00,
2013-01-06 20:33:00,39.2,28.8,30.09,West,270,0.0,0.0,66,0.00,,---,0.03,VWS V14.01,2013-01-07 01:33:00,
2013-01-06 20:38:00,39.1,28.7,30.09,WNW,288,0.0,1.0,66,0.00,,---,0.03,VWS V14.01,2013-01-07 01:38:00,
2013-01-06 20:43:00,39.0,29.0,30.09,WNW,288,0.0,0.0,67,0.00,,---,0.03,VWS V14.01,2013-01-07 01:43:00,
2013-01-06 20:48:00,38.8,28.8,30.09,WNW,284,0.0,0.0,67,0.00,,---,0.03,VWS V14.01,2013-01-07 01:48:00,
2013-01-06 20:53:00,38.8,28.8,30.09,NNW,329,0.0,0.0,67,0.00,,---,0.03,VWS V14.01,2013-01-07 01:53:00,
2013-01-06 20:58:00,38.7,29.1,30.09,NNW,329,0.0,0.0,68,0.00,,---,0.03,VWS V14.01,2013-01-07 01:58:00,
2013-01-06 21:03:00,38.6,29.0,30.09,North,8,0.0,0.0,68,0.00,,---,0.03,VWS V14.01,2013-01-07 02:03:00,
2013-01-06 21:08:00,38.5,28.9,30.09,NW,326,0.0,0.0,68,0.00,,---,0.03,VWS V14.01,2013-01-07 02:08:00,
2013-01-06 21:13:00,38.5,28.9,30.09,ENE,57,0.0,0.0,68,0.00,,---,0.03,VWS V14.01,2013-01-07 02:13:00,
2013-01-06 21:19:00,38.5,29.2,30.10,WNW,299,0.0,0.0,69,0.00,,---,0.03,VWS V14.01,2013-01-07 02:19:00,
2013-01-06 21:24:00,38.5,28.9,30.10,WNW,290,0.0,0.0,68,0.00,,---,0.03,VWS V14.01,2013-01-07 02:24:00,
2013-01-06 21:29:00,38.5,29.2,30.10,WNW,291,0.0,0.0,69,0.00,,---,0.03,VWS V14.01,2013-01-07 02:29:00,
2013-01-06 21:34:00,38.3,29.0,30.10,North,352,0.0,0.0,69,0.00,,---,0.03,VWS V14.01,2013-01-07 02:34:00,
2013-01-06 21:39:00,38.2,28.9,30.09,NW,314,1.0,1.0,69,0.00,,---,0.03,VWS V14.01,2013-01-07 02:39:00,
2013-01-06 21:44:00,38.0,28.8,30.10,SW,232,0.0,1.0,69,0.00,,---,0.03,VWS V14.01,2013-01-07 02:44:00,
2013-01-06 21:49:00,37.7,28.8,30.10,SW,232,0.0,0.0,70,0.00,,---,0.03,VWS V14.01,2013-01-07 02:49:00,
2013-01-06 21:54:00,37.5,28.6,30.10,East,101,0.0,0.0,70,0.00,,---,0.03,VWS V14.01,2013-01-07 02:54:00,
2013-01-06 21:59:00,37.5,28.6,30.11,ESE,103,0.0,0.0,70,0.00,,---,0.03,VWS V14.01,2013-01-07 02:59:00,
2013-01-06 22:04:00,37.5,28.6,30.11,West,274,0.0,0.0,70,0.00,,---,0.03,VWS V14.01,2013-01-07 03:04:00,
2013-01-06 22:09:00,37.6,28.7,30.11,NNW,335,0.0,0.0,70,0.00,,---,0.03,VWS V14.01,2013-01-07 03:09:00,
2013-01-06 22:14:00,37.6,28.7,30.11,NW,326,0.0,0.0,70,0.00,,---,0.03,VWS V14.01,2013-01-07 03:14:00,
2013-01-06 22:19:00,37.5,28.6,30.11,NW,326,0.0,0.0,70,0.00,,---,0.03,VWS V14.01,2013-01-07 03:19:00,
2013-01-06 22:24:00,37.5,28.6,30.11,NW,325,0.0,0.0,70,0.00,,---,0.03,VWS V14.01,2013-01-07 03:24:00,
2013-01-06 22:29:00,37.6,28.7,30.11,NW,325,0.0,0.0,70,0.00,,---,0.03,VWS V14.01,2013-01-07 03:29:00,
2013-01-06 22:34:00,37.6,28.7,30.11,NW,316,0.0,0.0,70,0.00,,---,0.03,VWS V14.01,2013-01-07 03:34:00,
2013-01-06 22:39:00,37.6,28.7,30.11,ESE,120,0.0,1.0,70,0.00,,---,0.03,VWS V14.01,2013-01-07 03:39:00,
2013-01-06 22:44:00,37.3,28.8,30.12,West,277,0.0,0.0,71,0.00,,---,0.03,VWS V14.01,2013-01-07 03:44:00,
2013-01-06 22:50:00,37.2,28.7,30.12,West,275,0.0,0.0,71,0.00,,---,0.03,VWS V14.01,2013-01-07 03:50:00,
2013-01-06 22:55:00,37.3,29.1,30.12,NE,53,0.0,0.0,72,0.00,,---,0.03,VWS V14.01,2013-01-07 03:55:00,
2013-01-06 23:00:00,37.3,28.8,30.12,NW,319,0.0,0.0,71,0.00,,---,0.03,VWS V14.01,2013-01-07 04:00:00,
2013-01-06 23:05:00,37.3,29.1,30.12,NW,316,0.0,0.0,72,0.00,,---,0.03,VWS V14.01,2013-01-07 04:05:00,
2013-01-06 23:10:00,37.3,28.8,30.13,NW,317,0.0,0.0,71,0.00,,---,0.03,VWS V14.01,2013-01-07 04:10:00,
2013-01-06 23:15:00,37.4,28.9,30.13,NW,316,0.0,1.0,71,0.00,,---,0.03,VWS V14.01,2013-01-07 04:15:00,
2013-01-06 23:20:00,37.7,29.2,30.13,NW,315,1.0,1.0,71,0.00,,---,0.03,VWS V14.01,2013-01-07 04:20:00,
2013-01-06 23:25:00,37.8,29.6,30.14,WSW,250,0.0,0.0,72,0.00,,---,0.03,VWS V14.01,2013-01-07 04:25:00,
2013-01-06 23:30:00,37.6,29.4,30.14,WSW,250,0.0,0.0,72,0.00,,---,0.03,VWS V14.01,2013-01-07 04:30:00,
2013-01-06 23:35:00,37.4,29.5,30.14,ENE,66,0.0,0.0,73,0.00,,---,0.03,VWS V14.01,2013-01-07 04:35:00,
2013-01-06 23:40:00,37.6,29.7,30.14,WNW,302,0.0,0.0,73,0.00,,---,0.03,VWS V14.01,2013-01-07 04:40:00,
2013-01-06 23:45:00,37.5,30.0,30.15,NNE,25,0.0,1.0,74,0.00,,---,0.03,VWS V14.01,2013-01-07 04:45:00,
2013-01-06 23:50:00,37.5,30.0,30.15,NNE,23,0.0,1.0,74,0.00,,---,0.03,VWS V14.01,2013-01-07 04:50:00,
2013-01-06 23:55:00,37.6,30.1,30.15,WNW,291,0.0,0.0,74,0.00,,---,0.03,VWS V14.01,2013-01-07 04:55:00,